Wetbulb
59.31 59.31 59.22 58.68 58.37 58.30 58.29 58.25 58.38 58.13 58.01 57.84 57.44 57.33 57.19 57.26 57.20 57.08 57.11 56.84 56.65 56.54 57.65 59.25 60.11 61.65 60.18 52.90 54.72 60.08 73.34 71.42 61.96 60.42 59.60 58.96 58.10 56.74 54.29 55.13 56.86 56.50 57.18 58.08 59.76 60.79 61.09
59.61 59.04 58.60 58.49 58.12 58.12 57.94 57.98 58.12 58.29 57.87 57.87 57.34 57.47 56.93 57.09 56.87 56.91 56.86 56.51 56.30 56.33 58.15 59.12 60.66 62.86 57.85 50.36 58.26 60.00 59.82 61.27 60.99 60.10 58.72 58.86 58.07 58.00 55.73 55.12 55.63 57.47 57.28 57.52 58.36 59.34 61.28
59.93 59.57 59.24 59.10 59.18 58.93 58.55 58.32 58.16 57.79 57.33 57.40 57.21 57.25 56.79 56.83 56.67 56.39 56.38 56.17 55.88 56.93 58.22 59.37 61.06 61.44 55.21 53.12 58.71 59.45 59.64 61.36 60.85 60.89 58.81 59.70 59.50 58.09 57.02 55.72 56.97 56.64 55.20 57.53 58.11 58.39 59.41
59.89 59.78 59.44 59.26 59.19 58.63 57.77 57.95 57.64 57.12 57.07 57.08 56.65 56.72 56.60 56.26 55.98 56.07 55.83 55.37 56.18 57.45 58.56 59.87 61.70 59.02 50.45 55.36 58.19 59.40 59.37 58.38 59.50 60.58 61.10 61.03 60.03 57.83 56.69 57.09 56.28 54.97 55.37 52.27 56.73 58.25 59.80
59.80 59.67 59.38 59.38 59.04 58.31 57.44 57.25 57.06 56.83 56.60 56.58 56.45 56.49 56.07 55.53 55.35 55.29 54.98 55.52 56.97 58.48 59.62 60.59 58.46 54.77 50.11 61.55 57.46 58.50 59.10 58.15 57.99 57.92 59.41 59.16 57.98 54.99 55.49 54.02 53.86 53.42 49.53 50.60 52.67 56.07 58.55
59.74 59.45 59.12 59.03 58.62 57.62 57.09 56.74 56.78 56.50 56.49 56.78 56.70 56.57 56.24 54.75 54.83 54.57 54.90 55.88 56.53 58.02 59.21 60.88 60.36 54.02 55.97 54.45 58.08 56.86 58.49 58.47 56.12 56.64 56.55 55.95 55.16 54.60 53.58 54.34 49.58 48.96 48.64 50.12 50.22 54.13 55.64
59.54 59.22 58.83 58.51 57.79 57.20 56.85 56.39 56.59 56.35 56.38 56.78 56.59 56.46 56.05 54.45 54.48 53.97 54.63 55.53 52.82 51.87 55.45 49.59 49.48 52.01 55.14 57.02 57.03 55.84 57.13 56.42 55.77 55.74 53.36 52.98 53.65 51.13 50.98 51.48 51.43 50.36 49.46 49.41 52.40 53.97 55.73
59.26 58.95 58.66 58.43 57.68 57.01 56.47 56.30 56.11 56.10 56.32 56.47 56.31 56.28 55.47 54.25 53.76 53.96 53.07 52.93 53.33 53.83 50.99 53.70 52.65 52.30 54.18 55.68 53.84 53.87 56.66 54.52 53.18 51.65 52.18 52.87 51.84 52.75 52.05 51.55 50.60 50.38 49.65 50.40 52.55 55.36 55.89
59.08 58.63 58.37 58.20 57.63 56.52 56.04 55.75 55.75 55.95 56.04 55.88 55.96 55.77 54.74 53.06 53.61 52.52 51.87 53.58 55.91 56.45 50.94 52.17 53.97 53.94 55.25 56.02 53.63 53.86 55.89 54.26 52.69 51.28 51.35 51.19 51.67 52.05 51.50 51.08 50.28 50.61 49.56 50.06 50.22 52.26 56.78
58.99 58.48 58.28 58.10 57.90 57.55 56.25 55.75 55.60 55.90 55.65 55.62 55.79 55.45 54.23 52.64 50.53 52.26 52.49 55.15 58.10 56.75 49.06 49.13 53.51 55.01 54.68 55.17 52.29 54.39 55.46 54.88 52.75 51.58 51.48 51.47 52.86 51.72 50.87 50.05 51.24 49.35 51.61 50.76 50.33 50.82 49.10
58.92 58.50 58.24 58.02 57.82 57.57 56.95 55.71 55.44 55.35 55.49 55.57 55.51 54.94 53.97 52.05 51.36 53.78 55.92 57.47 54.77 53.67 41.09 51.28 53.40 56.76 54.08 52.96 53.33 51.90 54.96 55.86 52.37 51.43 52.21 50.95 50.86 50.65 50.20 51.29 51.89 51.23 51.18 50.76 51.07 50.64 50.18
58.87 58.68 58.46 58.24 57.76 57.39 57.04 55.71 55.46 54.99 54.96 55.08 54.75 53.93 53.40 50.99 51.47 55.80 56.93 56.52 54.56 47.92 41.10 50.06 52.14 52.32 51.50 51.57 51.98 52.84 53.60 55.91 54.73 52.32 51.60 52.22 53.04 52.53 52.66 52.76 52.36 52.12 51.73 50.91 50.57 51.09 48.60
58.87 58.56 58.44 58.07 57.49 57.01 56.64 55.58 55.51 54.58 54.67 54.10 53.54 51.80 52.20 53.57 53.45 56.37 55.37 55.37 48.27 43.54 50.01 48.37 48.96 50.71 50.97 49.81 50.56 51.53 51.22 50.97 50.00 47.79 48.45 50.54 51.51 52.87 52.97 51.44 52.20 51.81 50.16 47.35 46.47 48.10 47.32
58.50 58.35 58.21 57.87 56.97 56.82 56.64 55.75 54.88 54.41 54.35 53.37 51.90 51.04 52.13 53.70 55.27 55.12 55.81 53.61 43.82 46.30 48.69 51.53 48.91 49.23 49.18 50.12 50.28 49.86 49.95 48.83 49.86 49.95 48.60 47.87 48.22 53.07 54.35 53.67 52.87 51.24 51.07 47.46 41.99 45.72 47.47
58.28 58.19 58.07 57.78 56.99 56.62 56.62 55.96 54.64 54.12 53.86 52.91 51.36 51.87 52.41 53.89 54.58 54.74 55.53 47.23 47.05 48.90 53.50 50.21 49.33 47.84 48.11 49.65 50.28 49.94 49.92 49.81 51.23 51.37 48.49 47.72 49.30 54.18 53.79 53.97 53.46 50.07 50.22 50.66 47.99 47.68 48.74
57.96 58.11 57.91 57.66 56.76 56.62 56.64 55.84 54.49 54.14 53.55 52.68 53.43 55.43 57.12 55.41 55.49 56.15 54.17 44.64 49.56 52.03 54.86 55.07 48.46 49.49 47.65 49.12 49.57 49.69 49.26 51.35 50.49 51.80 53.70 50.80 48.87 52.92 54.45 55.34 55.19 53.96 53.08 50.85 51.23 45.45 44.03
58.07 57.91 57.86 57.52 56.76 56.40 56.68 55.95 54.31 54.04 53.19 52.13 56.33 57.23 57.41 55.98 55.58 56.79 50.27 49.73 51.66 55.56 55.82 53.61 53.17 48.99 49.45 49.06 50.78 49.62 49.99 51.39 51.90 50.28 52.74 52.34 50.75 52.66 54.23 53.41 52.73 53.51 53.25 50.89 51.65 49.88 47.47
57.93 57.70 57.60 57.26 56.62 56.38 56.86 56.03 53.96 53.23 52.10 52.24 55.54 55.42 58.34 56.47 54.43 50.86 51.48 52.38 50.34 54.76 56.04 54.98 54.66 52.28 50.96 50.13 50.21 50.41 50.37 51.02 53.91 52.24 49.77 53.44 52.55 51.45 51.13 52.86 52.60 54.35 52.53 52.00 50.37 48.22 49.52
57.73 57.62 57.64 57.16 56.62 56.50 56.68 55.79 53.84 52.98 52.68 51.59 56.14 55.80 58.37 56.68 50.19 51.46 52.43 51.98 53.99 54.07 54.53 55.42 53.54 54.13 52.35 51.48 51.33 50.71 51.27 55.27 54.10 53.68 52.55 54.50 51.97 49.38 49.81 51.84 54.24 53.31 52.86 51.45 50.97 51.52 49.83
57.61 57.84 57.76 57.06 56.62 56.50 56.70 55.50 53.74 53.18 52.91 52.72 56.52 53.91 56.43 55.35 52.51 51.92 51.46 52.23 51.88 54.99 54.28 56.35 55.71 55.77 54.79 53.29 54.37 53.84 54.00 55.03 56.07 56.44 58.93 58.11 50.65 51.49 49.01 50.40 52.65 51.46 52.24 52.41 51.55 49.48 49.14
57.60 57.74 57.68 57.12 56.78 56.52 56.61 55.69 53.96 53.36 52.91 51.91 55.77 53.90 53.37 52.74 53.07 52.37 52.52 52.78 51.62 53.26 56.57 56.95 55.50 55.17 55.20 53.09 53.27 53.06 53.96 53.98 54.20 58.47 54.83 55.52 51.83 51.43 50.73 51.63 51.69 52.10 51.76 51.96 51.01 52.16 49.98
57.27 57.40 57.46 56.95 56.88 56.54 56.82 55.83 54.34 53.73 52.61 55.29 54.00 54.11 54.70 53.28 53.33 54.45 50.83 54.31 53.22 54.44 54.85 54.61 54.31 54.94 56.14 54.24 54.50 53.32 54.78 55.40 54.44 54.40 54.16 53.19 52.14 52.12 50.80 51.41 51.77 50.90 52.46 52.92 53.22 53.27 51.69
57.12 57.30 57.48 56.92 56.60 56.40 56.62 55.89 54.37 54.08 53.26 54.16 54.38 55.67 54.32 50.26 53.37 52.05 52.75 53.19 54.04 56.39 56.52 57.04 55.77 55.88 54.29 54.78 56.51 56.64 55.98 56.30 55.84 55.19 53.50 53.57 52.79 51.75 49.12 49.65 50.49 48.27 51.80 53.76 56.85 58.23 56.86
57.04 57.28 57.64 56.78 55.99 55.70 56.18 56.04 54.68 54.47 53.95 52.09 52.99 53.65 53.56 52.73 53.70 53.08 52.65 53.01 53.44 54.39 54.58 56.04 56.99 57.09 56.31 57.77 56.84 57.42 56.39 55.94 55.80 53.95 53.89 52.91 52.87 51.86 49.88 50.05 43.23 51.25 59.09 56.08 58.51 58.43 59.06
57.03 57.19 57.44 56.28 55.48 55.36 55.66 55.51 54.96 55.11 54.55 52.31 53.37 54.06 53.25 52.36 53.33 53.18 53.07 52.08 53.92 55.09 55.19 55.51 56.31 56.87 57.12 56.62 54.90 53.61 52.55 52.48 52.76 51.97 52.66 53.01 52.93 49.34 47.87 47.33 48.36 54.28 58.27 58.43 57.75 56.95 60.41
56.95 57.23 56.99 55.84 55.13 55.17 55.46 55.05 54.67 54.87 54.70 53.47 53.50 54.73 54.17 52.05 53.00 53.69 52.38 52.00 52.64 53.11 55.53 55.43 57.80 58.00 57.57 54.76 53.44 49.65 49.11 49.29 49.37 51.85 52.56 51.90 53.02 51.22 47.39 45.07 43.82 52.19 59.75 59.96 60.53 52.85 61.66
56.81 57.11 56.47 55.07 54.74 54.86 54.93 54.62 54.32 54.95 55.08 53.53 53.70 54.39 54.25 51.66 54.26 53.58 53.42 52.42 53.39 53.13 53.80 53.69 54.50 56.34 56.66 54.14 51.09 49.93 49.65 51.18 48.74 48.94 50.52 51.83 50.39 49.08 48.44 47.46 50.31 53.94 59.19 61.08 51.59 54.13 62.46
56.57 56.81 55.30 54.10 54.14 54.63 54.48 54.16 54.53 54.57 55.45 53.78 53.52 54.96 54.29 52.75 53.96 54.46 55.04 54.18 53.88 53.76 53.18 53.59 54.35 55.09 55.46 52.82 51.90 51.12 50.62 51.57 51.39 52.14 51.39 51.75 50.46 49.34 48.59 47.30 45.74 57.80 58.67 56.34 59.57 61.31 63.54
56.73 55.97 54.39 53.96 53.77 54.27 53.92 53.76 53.84 54.31 54.86 53.92 52.21 54.01 54.86 53.43 54.21 55.32 57.19 58.24 57.52 57.20 55.14 52.96 53.17 53.41 55.79 53.76 52.42 52.44 51.62 51.95 50.95 49.27 52.17 50.30 52.84 52.97 52.09 52.96 56.24 57.74 58.04 61.39 61.35 63.08 62.91
MSLP
1021.60 1021.23 1020.91 1020.58 1020.25 1019.93 1019.60 1019.26 1018.92 1018.53 1018.23 1017.95 1017.61 1017.32 1016.97 1016.67 1016.46 1016.27 1016.06 1015.89 1015.74 1015.51 1015.18 1014.78 1014.34 1013.86 1013.19 1012.12 1010.06 1009.34 1009.20 1009.05 1008.91 1008.77 1008.52 1008.48 1008.33 1008.49 1008.38 1008.39 1008.19 1007.92 1007.48 1007.10 1006.86 1006.63 1006.91
1021.73 1021.36 1020.98 1020.62 1020.25 1019.88 1019.56 1019.23 1018.87 1018.51 1018.11 1017.77 1017.42 1017.10 1016.78 1016.46 1016.19 1016.03 1015.89 1015.74 1015.57 1015.40 1015.05 1014.73 1014.33 1013.91 1013.05 1011.17 1009.05 1009.19 1008.98 1008.98 1008.63 1008.53 1008.49 1008.31 1008.31 1008.40 1008.29 1008.37 1008.25 1007.89 1007.46 1006.99 1006.65 1006.36 1006.67
1021.81 1021.40 1020.97 1020.59 1020.21 1019.83 1019.45 1019.06 1018.67 1018.34 1018.00 1017.63 1017.26 1016.89 1016.52 1016.26 1016.01 1015.80 1015.65 1015.51 1015.39 1015.17 1014.88 1014.61 1014.29 1013.81 1012.60 1009.81 1008.88 1009.08 1008.95 1008.74 1008.59 1008.41 1008.29 1008.38 1008.37 1008.21 1008.38 1008.11 1008.34 1007.94 1007.44 1006.93 1006.73 1006.56 1006.70
1021.88 1021.45 1021.00 1020.57 1020.14 1019.78 1019.39 1018.99 1018.56 1018.20 1017.84 1017.45 1017.08 1016.72 1016.33 1016.03 1015.73 1015.48 1015.36 1015.25 1015.13 1014.87 1014.63 1014.40 1014.19 1013.66 1011.20 1008.99 1009.03 1008.78 1008.66 1008.52 1008.54 1008.50 1008.44 1008.44 1008.39 1008.34 1008.46 1008.47 1008.23 1008.06 1007.98 1007.34 1006.88 1006.75 1007.01
1021.90 1021.46 1021.02 1020.57 1020.12 1019.69 1019.29 1018.88 1018.49 1018.09 1017.68 1017.26 1016.87 1016.48 1016.02 1015.69 1015.42 1015.21 1015.06 1014.92 1014.72 1014.50 1014.35 1014.22 1014.05 1013.00 1010.09 1008.66 1008.69 1008.22 1008.13 1008.06 1008.18 1008.38 1008.51 1008.52 1008.44 1008.72 1008.75 1008.46 1008.29 1008.57 1008.21 1007.76 1006.97 1006.92 1007.13
1021.95 1021.49 1021.03 1020.56 1020.09 1019.65 1019.23 1018.79 1018.36 1017.94 1017.47 1017.03 1016.63 1016.17 1015.72 1015.40 1015.09 1014.91 1014.71 1014.50 1014.34 1014.24 1014.25 1014.00 1013.41 1012.73 1009.67 1008.73 1008.25 1008.21 1008.22 1007.99 1007.97 1008.17 1008.22 1008.54 1008.60 1008.71 1008.83 1008.61 1008.50 1008.74 1008.47 1008.05 1007.68 1007.30 1007.39
1022.01 1021.53 1021.09 1020.61 1020.10 1019.63 1019.16 1018.74 1018.31 1017.80 1017.28 1016.82 1016.31 1015.81 1015.42 1015.14 1014.86 1014.76 1014.28 1014.07 1014.39 1014.03 1013.39 1011.80 1011.15 1010.36 1009.25 1008.62 1008.43 1008.02 1008.03 1007.94 1008.07 1008.22 1008.26 1008.73 1008.35 1008.45 1008.83 1009.02 1009.13 1009.02 1008.71 1008.29 1007.59 1007.64 1007.69
1022.14 1021.64 1021.14 1020.62 1020.13 1019.61 1019.14 1018.66 1018.19 1017.66 1017.15 1016.67 1016.09 1015.56 1015.16 1014.97 1014.77 1014.65 1014.54 1013.15 1012.31 1012.22 1011.67 1010.80 1010.56 1009.94 1009.25 1008.88 1008.19 1007.86 1007.87 1007.89 1008.12 1008.28 1008.67 1008.71 1008.35 1008.61 1008.90 1008.92 1008.85 1008.69 1008.44 1007.85 1007.68 1007.70 1007.87
1022.16 1021.68 1021.17 1020.62 1020.13 1019.57 1019.06 1018.56 1018.03 1017.49 1016.94 1016.43 1015.87 1015.37 1015.02 1014.87 1014.64 1014.59 1013.77 1012.36 1011.87 1011.72 1011.08 1010.10 1009.69 1009.07 1008.40 1008.45 1007.80 1007.62 1007.62 1007.78 1008.06 1008.37 1008.42 1008.31 1008.52 1008.73 1008.75 1008.45 1008.39 1008.21 1008.03 1007.64 1007.65 1007.78 1008.33
1022.21 1021.68 1021.16 1020.60 1020.02 1019.44 1018.89 1018.37 1017.83 1017.29 1016.71 1016.15 1015.65 1015.19 1014.89 1014.75 1015.06 1013.89 1012.86 1011.83 1011.81 1011.76 1010.47 1009.52 1008.80 1007.99 1008.17 1007.79 1007.59 1007.47 1007.47 1007.52 1008.03 1008.22 1008.41 1008.36 1008.34 1008.41 1008.23 1008.15 1008.09 1007.49 1007.29 1007.50 1007.49 1007.73 1008.14
1022.21 1021.68 1021.11 1020.51 1019.95 1019.32 1018.76 1018.19 1017.62 1017.05 1016.43 1015.83 1015.32 1014.90 1014.70 1014.87 1014.19 1013.36 1012.19 1011.78 1011.56 1011.28 1009.50 1008.60 1007.87 1007.54 1007.56 1007.32 1007.19 1007.44 1007.45 1007.36 1007.59 1007.98 1008.32 1008.04 1008.07 1008.06 1007.84 1007.45 1007.64 1007.06 1007.23 1007.35 1007.38 1007.55 1007.93
1022.12 1021.62 1021.05 1020.42 1019.83 1019.20 1018.62 1017.99 1017.38 1016.75 1016.10 1015.50 1014.91 1014.44 1014.31 1014.59 1014.26 1012.30 1011.96 1011.67 1011.25 1010.25 1008.42 1007.63 1007.21 1007.14 1007.06 1007.00 1006.91 1007.21 1007.19 1007.26 1007.82 1007.83 1008.11 1007.85 1007.95 1007.64 1007.01 1006.95 1007.06 1007.12 1007.13 1007.32 1007.53 1007.27 1007.27
1022.03 1021.55 1021.00 1020.39 1019.74 1019.06 1018.44 1017.78 1017.12 1016.42 1015.69 1015.07 1014.39 1013.96 1014.02 1013.45 1012.55 1011.96 1011.81 1011.20 1010.30 1008.62 1007.73 1007.10 1006.66 1006.68 1006.57 1006.70 1006.78 1006.86 1007.13 1007.36 1007.41 1007.63 1007.45 1007.27 1006.85 1006.76 1006.73 1006.68 1006.95 1006.93 1006.79 1006.56 1006.60 1006.66 1007.17
1021.87 1021.41 1020.89 1020.31 1019.67 1018.95 1018.28 1017.59 1016.87 1016.09 1015.29 1014.60 1014.06 1013.75 1013.48 1012.83 1012.41 1012.09 1011.28 1010.39 1009.07 1007.75 1006.81 1006.33 1006.20 1006.39 1006.30 1006.42 1006.68 1006.87 1007.03 1007.24 1007.66 1007.48 1007.27 1006.82 1006.41 1006.20 1006.23 1005.91 1005.84 1006.53 1006.47 1006.45 1006.57 1006.97 1007.21
1021.71 1021.23 1020.75 1020.16 1019.55 1018.86 1018.13 1017.40 1016.63 1015.79 1014.91 1014.10 1013.58 1013.55 1013.08 1011.93 1012.19 1012.19 1010.81 1009.60 1008.23 1007.27 1006.43 1005.90 1006.01 1005.90 1006.08 1006.19 1006.22 1006.54 1006.67 1006.55 1006.63 1006.99 1006.92 1006.72 1006.13 1005.91 1005.99 1005.85 1006.18 1006.83 1006.87 1007.14 1007.05 1008.13 1007.57
1021.59 1021.13 1020.62 1020.07 1019.43 1018.77 1018.05 1017.30 1016.45 1015.52 1014.51 1013.65 1013.18 1012.57 1011.97 1011.65 1011.81 1011.44 1010.28 1009.44 1008.22 1007.28 1006.35 1005.76 1005.33 1005.34 1005.40 1005.80 1006.07 1006.18 1006.22 1006.00 1006.13 1006.40 1006.48 1006.78 1006.36 1005.97 1005.87 1006.09 1006.42 1006.22 1006.86 1007.12 1007.07 1007.19 1007.14
1021.37 1020.98 1020.50 1019.95 1019.36 1018.67 1017.99 1017.24 1016.35 1015.36 1014.15 1013.26 1012.71 1011.81 1011.67 1011.66 1011.70 1010.61 1009.81 1009.06 1008.01 1006.87 1006.51 1005.76 1005.31 1005.27 1005.14 1005.35 1005.52 1005.72 1005.71 1005.69 1005.73 1006.37 1006.54 1006.58 1006.58 1006.17 1006.03 1006.22 1006.39 1006.58 1006.69 1007.38 1007.43 1007.60 1007.11
1021.23 1020.80 1020.39 1019.86 1019.28 1018.59 1017.93 1017.28 1016.52 1015.55 1014.24 1013.11 1012.48 1011.50 1011.59 1011.69 1011.04 1010.92 1009.75 1008.84 1007.97 1006.55 1006.13 1005.53 1005.45 1005.12 1004.88 1005.13 1005.26 1005.51 1005.48 1005.70 1005.75 1005.92 1006.29 1006.81 1006.52 1006.13 1006.50 1007.02 1007.13 1006.67 1006.97 1007.13 1007.05 1007.64 1007.97
1021.00 1020.65 1020.24 1019.78 1019.23 1018.56 1017.86 1017.24 1016.55 1015.80 1015.16 1014.43 1012.80 1011.80 1011.40 1011.04 1010.45 1010.11 1009.45 1008.52 1007.65 1006.48 1005.82 1005.48 1005.10 1004.94 1005.01 1004.90 1005.26 1005.35 1005.35 1005.56 1005.76 1005.88 1005.87 1006.44 1006.67 1006.50 1006.75 1007.13 1007.15 1007.01 1007.37 1007.67 1007.70 1007.81 1007.73
1020.74 1020.43 1020.08 1019.68 1019.20 1018.57 1017.86 1017.23 1016.53 1015.76 1015.10 1014.75 1013.02 1011.78 1011.23 1010.89 1010.61 1009.80 1009.17 1008.17 1007.21 1006.35 1005.83 1005.59 1005.26 1004.91 1004.97 1005.05 1005.20 1005.19 1005.26 1005.56 1005.78 1005.89 1006.11 1006.25 1006.71 1006.49 1006.62 1007.01 1007.39 1007.43 1007.53 1007.72 1007.68 1007.52 1007.36
1020.48 1020.20 1019.90 1019.55 1019.15 1018.62 1017.95 1017.27 1016.48 1015.66 1014.94 1014.71 1013.15 1012.39 1012.01 1010.90 1010.29 1009.79 1009.28 1008.33 1007.35 1006.44 1005.86 1005.62 1005.40 1004.91 1004.49 1004.97 1005.17 1005.22 1005.48 1005.62 1005.98 1006.28 1006.53 1006.47 1006.74 1007.36 1007.47 1007.52 1007.66 1007.61 1007.60 1007.69 1007.72 1007.69 1007.71
1020.13 1019.94 1019.63 1019.34 1019.01 1018.56 1018.01 1017.46 1016.67 1015.68 1014.58 1014.18 1013.76 1013.25 1012.21 1011.25 1010.55 1009.80 1009.21 1008.12 1007.33 1006.47 1006.18 1005.58 1005.35 1005.16 1004.80 1005.06 1005.33 1005.26 1005.46 1005.44 1005.81 1006.33 1006.44 1006.96 1007.57 1007.81 1007.87 1007.99 1007.89 1007.69 1007.56 1007.48 1007.73 1007.91 1008.03
1019.74 1019.60 1019.38 1019.15 1018.87 1018.51 1018.06 1017.60 1017.05 1016.24 1014.94 1014.69 1014.67 1014.04 1013.10 1011.57 1010.56 1009.81 1009.02 1008.30 1007.28 1006.72 1006.34 1005.87 1005.67 1005.34 1005.72 1006.30 1005.98 1006.08 1006.32 1006.28 1006.16 1006.53 1006.83 1007.22 1007.53 1007.89 1007.97 1008.39 1008.14 1007.76 1007.25 1007.46 1007.67 1008.03 1008.22
1019.30 1019.21 1019.11 1018.95 1018.71 1018.41 1018.05 1017.67 1017.31 1016.92 1016.69 1016.50 1015.69 1014.94 1013.27 1011.63 1010.75 1009.89 1009.26 1008.67 1007.77 1007.25 1006.72 1006.43 1006.23 1006.12 1007.25 1006.99 1006.67 1006.48 1006.47 1006.89 1007.04 1007.31 1007.31 1007.62 1008.05 1008.31 1008.09 1008.50 1008.11 1007.34 1007.73 1007.71 1007.69 1008.02 1008.42
1018.82 1018.80 1018.74 1018.70 1018.55 1018.29 1018.03 1017.68 1017.34 1017.04 1016.79 1016.48 1016.05 1015.31 1013.94 1012.35 1011.31 1010.09 1009.48 1008.79 1008.17 1007.67 1007.21 1007.08 1007.13 1007.49 1007.19 1007.20 1006.83 1006.96 1007.32 1007.16 1007.83 1008.27 1008.22 1008.41 1008.38 1008.52 1008.64 1008.13 1008.19 1007.82 1007.66 1007.61 1007.63 1007.84 1008.35
1018.28 1018.38 1018.40 1018.41 1018.33 1018.16 1017.93 1017.67 1017.32 1017.05 1016.71 1016.38 1016.07 1015.75 1014.68 1013.37 1011.65 1010.91 1009.95 1009.43 1008.72 1008.40 1007.93 1007.77 1007.85 1007.82 1007.45 1007.30 1007.41 1007.48 1007.44 1007.69 1007.84 1008.41 1008.90 1008.92 1008.90 1008.58 1009.13 1008.32 1007.59 1006.96 1007.22 1007.61 1007.93 1007.71 1008.11
1017.74 1017.89 1018.06 1018.12 1018.06 1017.97 1017.81 1017.59 1017.26 1017.05 1016.77 1016.52 1016.03 1015.96 1015.08 1013.70 1012.18 1011.49 1010.43 1010.06 1009.74 1009.23 1008.75 1008.66 1008.44 1007.97 1007.75 1007.84 1008.11 1008.39 1008.27 1008.63 1008.54 1008.51 1008.77 1008.98 1009.19 1008.89 1008.79 1008.40 1007.71 1007.76 1007.85 1007.92 1008.15 1008.15 1007.99
1017.20 1017.44 1017.71 1017.81 1017.79 1017.77 1017.68 1017.46 1017.15 1016.96 1016.75 1016.41 1015.89 1015.82 1015.35 1014.21 1012.52 1011.84 1011.09 1010.37 1010.03 1009.74 1009.26 1009.62 1009.55 1009.09 1008.89 1008.71 1008.86 1009.00 1009.02 1009.21 1009.23 1009.17 1009.03 1008.88 1009.09 1009.06 1009.23 1008.82 1008.53 1008.44 1008.49 1008.16 1008.21 1008.28 1008.37
1016.71 1017.02 1017.35 1017.49 1017.51 1017.55 1017.55 1017.35 1017.13 1016.97 1016.75 1016.44 1015.88 1015.70 1015.71 1014.79 1012.91 1012.27 1011.28 1010.75 1010.49 1010.19 1009.99 1010.18 1010.15 1009.92 1009.79 1009.62 1009.93 1009.90 1009.74 1009.93 1009.83 1009.32 1009.74 1009.34 1009.43 1009.34 1009.49 1008.80 1009.11 1009.03 1008.85 1008.64 1008.61 1008.43 1008.71
Wind_Speed
17 17 16 16 16 15 15 15 15 16 15 14 15 14 14 14 12 11 11 11 11 12 13 14 14 15 4 1 7 4 3 4 3 3 2 2 3 2 2 4 4 2 6 9 8 8 2
15 15 16 16 15 15 15 16 16 15 16 15 15 14 15 13 12 11 10 10 10 11 13 13 13 13 2 5 3 4 4 3 3 2 2 1 2 1 3 2 3 5 10 13 7 6 4
15 15 15 15 15 16 16 16 17 16 16 15 15 15 15 13 12 11 10 10 10 11 12 11 9 4 2 11 2 6 4 1 2 2 2 2 2 3 3 2 4 6 7 7 3 5 3
15 15 16 16 16 16 17 16 17 17 16 16 16 15 15 14 12 11 10 10 11 11 10 8 6 2 8 2 5 8 3 3 2 1 1 1 1 4 2 3 3 3 2 6 2 7 3
15 16 16 17 17 17 18 17 17 17 17 17 16 15 16 15 12 10 10 10 12 10 7 4 2 2 7 8 3 1 3 3 2 3 2 5 2 4 1 2 1 6 4 5 8 5 2
16 17 17 18 18 19 18 18 18 18 18 16 16 15 14 14 11 9 9 12 2 2 3 3 3 3 5 2 2 1 1 3 2 4 3 0 4 2 2 1 3 4 5 6 6 3 5
16 17 18 19 20 20 19 19 18 19 19 17 17 15 13 13 9 7 5 4 4 3 3 6 2 3 2 7 3 2 3 5 2 4 4 3 2 2 3 2 2 3 5 9 6 3 0
16 16 17 18 20 20 20 19 18 19 18 17 18 15 14 10 7 4 2 3 1 3 4 7 5 7 5 3 1 2 5 6 2 3 2 4 7 3 3 4 3 3 8 7 7 2 2
15 16 17 17 19 22 21 21 20 19 18 18 17 16 11 10 4 2 2 3 2 1 2 1 4 5 2 7 4 9 9 4 3 4 2 5 3 4 4 1 4 5 6 4 6 3 4
15 15 16 17 18 18 22 21 21 19 19 19 17 15 9 7 3 1 4 1 5 4 2 2 3 2 5 3 3 2 5 4 2 5 4 2 1 4 3 5 6 4 9 8 6 2 2
14 15 16 18 18 19 20 22 22 21 20 18 18 14 9 4 2 4 3 6 5 4 2 3 4 1 1 3 7 4 1 3 6 6 5 3 4 6 6 5 8 2 1 1 1 2 4
15 16 17 18 19 19 20 23 22 22 21 20 19 16 5 3 3 5 5 2 3 3 3 4 4 6 6 1 2 3 3 4 2 3 1 8 2 5 4 2 7 3 2 1 2 2 2
15 16 17 18 19 20 20 23 22 24 21 21 18 11 7 3 1 3 3 3 3 3 1 6 5 6 7 5 4 4 8 9 6 5 6 2 7 3 4 5 4 4 3 2 3 0 2
14 16 17 18 19 20 21 24 24 25 22 22 18 2 5 4 3 5 3 2 2 0 3 2 4 8 9 7 3 3 8 9 3 3 3 5 7 5 6 6 3 5 6 4 2 2 3
13 14 16 18 19 20 21 23 25 26 25 24 9 2 3 3 10 3 2 2 2 4 1 3 5 7 4 5 3 4 7 10 10 12 5 5 2 1 1 2 3 6 4 3 6 1 4
13 14 15 17 19 20 21 23 26 27 28 23 1 2 2 3 9 2 1 2 4 4 4 1 6 4 8 9 7 7 7 5 7 14 13 2 2 1 4 2 11 4 9 4 1 3 3
12 13 15 16 18 20 21 22 27 26 28 11 2 1 5 3 3 1 3 4 5 6 4 2 2 6 4 7 9 6 6 2 5 6 11 6 3 3 2 4 1 4 4 6 3 3 3
12 13 14 15 17 20 21 21 26 25 28 2 2 3 3 3 2 1 3 4 2 6 6 7 3 4 7 11 8 8 6 3 5 11 12 6 2 0 4 2 3 2 4 1 3 4 1
11 12 13 15 16 19 20 21 24 22 21 5 2 2 2 3 3 3 2 4 5 4 2 1 3 6 4 8 4 6 5 1 9 7 11 10 3 5 3 5 2 3 3 3 4 1 4
10 11 12 14 15 17 19 20 25 23 21 2 2 3 2 1 1 2 1 3 4 3 4 2 3 3 4 4 2 7 6 3 5 4 7 5 4 2 3 3 3 3 2 3 5 4 3
10 10 11 12 14 16 17 19 23 26 20 2 3 2 3 4 4 3 2 3 4 4 2 0 3 2 5 4 3 4 3 5 4 6 4 1 4 2 3 7 3 3 5 6 8 4 7
10 9 11 10 13 15 16 17 23 24 22 1 3 2 1 1 1 3 3 3 3 2 2 1 5 7 7 6 1 7 5 3 2 3 3 2 4 3 4 3 3 5 6 7 5 4 8
9 10 9 9 11 13 14 15 20 19 15 3 2 1 3 2 0 3 2 3 3 4 3 5 3 9 14 5 5 6 5 6 4 3 4 3 7 5 3 2 1 8 8 7 3 3 2
9 10 9 7 10 12 13 13 16 14 10 1 2 2 2 1 2 1 2 3 3 3 1 3 4 3 2 2 4 4 6 7 5 8 5 5 5 1 2 4 7 3 4 6 6 3 5
9 9 8 6 7 10 11 12 14 12 10 1 1 2 2 2 3 2 6 3 2 1 3 4 6 4 4 3 2 4 0 4 4 7 4 1 4 3 4 7 3 2 5 6 6 5 6
9 8 6 5 6 9 9 11 12 11 11 2 2 1 2 3 2 4 4 4 4 3 1 3 3 4 1 4 3 2 3 1 2 3 5 6 5 5 4 5 7 1 7 4 2 7 11
9 8 6 4 5 7 8 10 11 11 11 4 2 1 2 2 1 2 2 3 1 1 1 2 6 4 4 2 3 3 3 1 3 3 3 2 3 6 6 7 3 0 3 6 8 2 11
9 8 5 3 4 5 7 9 11 10 11 6 2 1 3 2 5 4 2 1 0 2 2 4 3 2 2 3 2 2 3 3 2 1 2 3 3 3 3 6 8 2 5 7 3 2 5
9 8 5 3 3 4 6 8 10 9 9 7 1 1 2 4 4 3 7 7 4 4 0 1 3 1 1 3 2 3 3 2 2 3 2 3 2 2 5 2 2 3 4 5 3 4 3
Wind_Direction
10 10 7 4 1 358 356 354 352 349 346 342 339 335 333 330 325 319 314 311 309 310 311 317 322 325 314 222 252 16 197 170 160 184 161 170 68 110 22 331 331 313 336 316 311 276 228
4 6 8 6 2 358 355 350 347 345 344 341 339 333 333 328 322 316 311 306 303 302 306 313 320 316 285 243 117 11 6 186 153 143 116 118 88 126 85 329 334 323 317 306 303 291 195
357 356 353 352 350 350 350 347 347 347 347 343 341 334 333 328 321 312 308 301 297 297 302 307 313 315 232 241 110 322 305 212 155 126 120 130 145 38 335 338 343 325 322 319 326 304 312
356 353 352 349 350 351 354 351 350 349 348 345 342 339 333 327 318 312 305 298 292 293 292 296 303 260 252 238 316 288 192 201 221 244 228 120 149 95 358 317 1 24 20 329 2 332 31
357 354 352 352 350 353 353 352 350 349 347 345 344 336 333 328 317 310 302 295 291 283 276 272 240 263 262 315 252 290 205 151 141 97 88 94 72 57 80 8 10 34 315 340 327 343 153
357 357 354 353 352 353 352 351 349 347 347 341 341 333 331 332 321 314 300 289 251 248 192 201 258 261 249 77 323 91 182 153 93 93 100 61 70 97 101 283 298 326 322 318 290 1 335
358 358 357 353 356 354 351 349 346 346 345 342 338 330 330 333 325 324 333 146 163 163 215 212 187 266 315 314 259 166 160 129 96 67 164 36 202 278 312 257 201 246 285 306 292 299 311
356 355 353 352 356 354 351 347 345 343 342 341 335 331 332 335 322 318 280 207 102 16 282 224 253 279 258 260 126 136 164 165 156 157 156 160 234 226 258 252 245 274 296 285 282 1 295
351 350 348 349 354 355 349 348 343 340 340 339 336 335 344 332 325 241 239 223 67 300 277 243 193 222 216 177 178 174 176 132 141 157 145 198 112 132 266 269 278 243 238 259 266 27 67
344 344 344 344 343 342 350 345 343 338 338 338 334 332 342 329 268 148 233 212 295 226 331 140 198 173 157 205 133 164 181 148 132 175 148 235 99 239 257 258 222 256 214 244 268 242 316
339 340 341 342 341 341 343 344 341 338 337 333 331 325 312 269 335 213 83 327 133 203 145 127 147 70 146 203 132 153 199 115 158 151 187 167 194 203 236 239 187 300 181 262 314 163 206
337 338 339 339 339 341 339 344 340 338 337 334 329 326 282 179 232 259 317 289 230 234 129 149 134 161 157 112 93 98 131 65 90 153 234 258 200 244 239 140 194 112 180 89 149 200 188
334 335 336 336 337 338 339 345 339 339 335 335 329 328 188 182 112 339 283 183 182 228 13 160 163 173 169 155 139 148 166 188 197 179 226 283 246 227 204 237 156 191 229 263 196 358 6
331 331 334 334 335 337 339 346 342 339 335 334 330 299 230 249 304 326 209 188 200 103 228 91 122 134 187 156 154 129 149 186 183 161 147 216 179 192 166 233 213 186 240 234 207 262 3
326 329 332 334 334 335 338 344 343 340 338 334 328 179 248 252 212 280 205 194 245 209 334 140 129 151 151 176 181 168 189 200 201 198 226 191 233 278 336 167 226 142 177 58 115 118 251
323 327 330 333 334 335 338 344 345 342 340 337 276 213 20 42 162 230 174 264 253 235 312 238 215 181 160 174 182 200 179 168 198 196 213 181 274 43 135 152 60 265 133 174 133 215 270
321 324 327 332 334 335 338 344 347 345 339 339 249 121 23 116 196 159 212 249 277 255 242 267 250 179 169 164 197 181 188 182 209 169 191 179 256 120 205 20 92 149 131 63 95 323 262
318 321 325 331 334 335 339 345 349 349 342 22 311 119 65 207 146 17 202 217 292 269 233 256 221 222 180 172 174 204 211 259 169 154 174 176 218 53 91 333 299 43 93 129 267 172 90
314 318 325 330 334 337 339 345 350 352 355 317 32 89 136 291 184 201 250 260 246 265 267 227 240 216 179 169 154 202 188 71 160 160 156 168 209 148 180 154 127 53 56 79 105 120 204
310 315 324 329 334 338 339 344 350 349 349 259 272 132 132 71 350 179 278 266 271 241 263 257 285 165 151 146 40 164 163 132 157 119 85 119 120 239 268 83 107 170 224 204 258 238 245
304 310 317 325 332 337 341 344 350 349 349 264 359 64 1 181 197 205 233 281 286 301 223 269 198 231 157 127 109 136 154 131 101 152 77 181 114 154 133 136 172 198 241 219 233 255 248
299 302 303 321 331 337 342 347 352 349 342 60 358 349 17 321 262 191 169 232 244 272 266 15 112 83 94 90 333 164 146 154 143 127 91 58 128 152 187 176 195 242 240 240 216 225 249
289 292 299 319 331 337 344 349 357 357 350 19 18 196 282 86 133 200 190 277 267 310 87 60 93 93 69 60 64 67 62 60 53 143 106 131 147 161 219 340 244 263 255 210 217 223 268
278 286 290 314 331 338 344 349 357 5 22 300 335 291 300 114 268 342 323 279 303 307 43 24 27 80 92 10 112 69 61 53 52 45 34 124 120 190 258 160 241 16 301 246 251 224 218
267 275 281 307 327 335 341 347 353 353 5 289 288 307 340 304 311 289 339 349 289 38 69 58 31 9 291 136 143 115 82 145 73 43 31 318 147 139 237 234 341 212 203 175 202 212 194
254 263 265 294 324 329 337 343 348 350 358 341 279 287 292 300 145 311 325 353 20 15 109 72 61 315 311 59 66 131 201 121 192 127 60 84 60 237 155 232 231 253 180 169 180 256 180
241 248 242 283 318 323 330 339 344 348 355 340 290 276 262 288 255 289 351 353 10 15 33 337 350 18 356 80 104 195 184 310 226 206 168 124 115 222 204 239 260 286 116 146 203 41 170
229 224 226 264 304 316 323 336 338 349 352 352 295 291 323 294 278 225 275 302 98 15 20 32 223 136 87 123 198 148 210 155 223 297 222 205 195 197 174 213 245 117 136 210 27 75 151
219 198 207 247 283 306 318 331 336 344 350 360 275 26 318 239 294 291 272 272 261 270 234 33 12 88 79 108 165 137 165 177 215 216 217 191 255 327 242 351 27 285 287 318 224 158 136